Wetbulb
35.01 34.41 33.37 31.63 30.39 29.38 28.33 27.46 26.85 26.87 26.87 26.91 27.07 26.70 26.57 25.79 25.47 25.08 24.61 24.17 24.58 24.94
33.98 32.97 31.82 28.29 27.58 27.47 26.71 27.88 26.79 26.96 26.64 26.33 26.10 25.96 25.28 25.25 24.15 24.05 23.66 23.49 23.85 23.78
32.71 32.03 29.15 28.77 27.64 27.16 27.21 27.64 26.57 26.11 26.13 25.60 25.20 24.82 24.51 23.69 23.76 23.40 22.53 23.37 23.09 23.05
31.13 29.29 29.26 28.88 27.57 26.94 27.22 26.54 26.22 26.24 25.80 25.40 24.70 24.04 23.52 23.17 22.96 22.81 22.49 22.03 22.18 22.16
29.69 28.89 28.47 27.70 26.93 26.78 26.66 26.39 26.15 25.80 25.59 25.08 24.60 23.70 23.53 22.85 22.68 22.06 21.90 21.85 21.52 20.91
28.64 28.27 28.11 27.12 26.90 26.82 25.96 25.52 25.44 25.46 25.04 24.77 24.48 23.98 23.86 23.32 22.41 21.62 21.47 21.37 21.04 20.65
28.33 28.95 28.84 28.04 26.87 26.38 25.99 25.41 25.45 25.36 24.59 23.89 23.74 23.76 23.70 23.31 21.80 20.84 20.86 21.36 21.05 20.46
29.35 29.88 28.99 27.31 27.00 26.44 25.90 26.07 25.89 24.08 23.52 23.35 23.47 24.00 23.55 22.86 21.35 21.17 20.30 20.74 21.78 21.45
29.12 28.33 27.37 26.61 26.23 25.90 25.39 24.61 24.52 24.13 23.71 22.68 23.61 27.80 29.12 24.60 22.06 21.68 20.93 20.41 20.53 20.81
28.71 27.91 27.38 26.91 26.00 25.37 24.58 24.65 23.97 23.65 23.15 22.90 23.22 29.09 30.60 29.47 22.18 21.55 21.17 20.79 21.11 21.00
28.40 28.00 27.16 26.40 25.78 25.20 24.93 24.08 23.81 23.36 23.56 23.44 22.96 28.95 31.00 30.72 22.82 21.23 21.04 20.76 20.92 20.53
28.88 28.10 26.89 26.42 25.85 25.54 25.06 24.33 24.25 24.87 24.00 23.45 23.55 28.82 30.60 30.05 24.45 22.90 21.97 21.55 20.70 20.31
29.60 29.13 27.64 27.50 26.56 26.68 26.38 25.87 25.34 24.86 24.73 24.25 24.15 27.72 30.27 29.91 24.52 21.37 21.59 20.79 20.90 23.51
29.04 29.41 28.92 28.38 27.82 27.53 26.64 26.03 24.99 24.41 24.48 23.28 22.98 22.49 29.55 30.79 24.68 23.23 20.01 19.57 19.45 20.17
MSLP
1023.66 1024.46 1025.08 1025.78 1026.57 1027.44 1027.94 1028.35 1029.05 1029.51 1029.77 1030.07 1030.34 1030.88 1031.50 1032.14 1032.46 1032.47 1032.91 1033.46 1033.92 1034.42
1023.52 1024.26 1024.95 1025.92 1026.62 1027.28 1027.80 1028.22 1028.94 1029.35 1029.77 1030.24 1030.65 1031.12 1031.64 1032.02 1032.42 1032.70 1033.31 1033.75 1034.16 1034.78
1023.31 1024.15 1024.87 1025.75 1026.42 1026.97 1027.49 1028.01 1028.76 1029.34 1029.80 1030.37 1030.94 1031.43 1031.67 1032.22 1032.66 1033.01 1033.75 1034.07 1034.53 1035.02
1023.12 1023.83 1024.60 1025.38 1026.08 1026.62 1027.19 1027.85 1028.45 1028.98 1029.61 1030.26 1030.89 1031.35 1031.77 1032.28 1032.69 1033.00 1033.67 1034.24 1034.62 1034.90
1022.91 1023.68 1024.44 1025.15 1025.84 1026.44 1027.04 1027.75 1028.18 1028.76 1029.38 1030.03 1030.59 1031.12 1031.51 1031.84 1032.41 1032.91 1033.48 1033.89 1034.23 1034.52
1022.73 1023.53 1024.30 1025.10 1025.87 1026.53 1027.19 1027.76 1028.32 1028.76 1029.25 1029.78 1030.29 1030.83 1031.21 1031.44 1032.10 1032.65 1033.23 1033.63 1034.04 1034.38
1021.91 1022.64 1023.64 1024.62 1025.49 1026.26 1026.88 1027.54 1028.21 1028.76 1029.23 1029.73 1030.14 1030.53 1030.83 1031.25 1031.96 1032.57 1033.04 1033.41 1033.67 1033.86
1021.51 1022.24 1023.20 1024.26 1025.16 1026.04 1026.79 1027.24 1027.85 1028.60 1029.24 1029.75 1030.13 1030.26 1030.51 1030.96 1031.61 1032.19 1032.80 1033.33 1033.50 1033.61
1021.22 1022.25 1022.96 1023.98 1024.90 1025.83 1026.72 1027.33 1027.93 1028.40 1028.94 1029.56 1029.85 1029.76 1029.96 1030.61 1031.18 1031.72 1032.24 1032.83 1033.07 1033.33
1020.56 1021.69 1022.59 1023.49 1024.46 1025.31 1026.13 1026.93 1027.69 1028.22 1028.72 1029.24 1029.60 1029.46 1029.59 1029.98 1030.79 1031.22 1031.59 1032.07 1032.51 1032.82
1020.00 1021.16 1022.21 1023.14 1023.94 1024.89 1025.71 1026.48 1027.10 1027.81 1028.40 1028.96 1029.16 1029.19 1029.26 1029.61 1030.52 1030.97 1031.35 1031.50 1031.76 1032.21
1019.33 1020.51 1021.50 1022.43 1023.41 1024.46 1025.33 1026.21 1026.97 1027.36 1028.12 1028.54 1028.71 1028.70 1028.79 1029.15 1029.95 1030.51 1030.80 1030.99 1031.20 1031.53
1018.68 1019.74 1020.76 1021.91 1023.05 1024.03 1024.87 1025.62 1026.54 1027.08 1027.52 1028.05 1028.27 1028.36 1028.31 1028.50 1029.29 1029.94 1030.14 1030.27 1030.54 1030.65
1018.79 1019.75 1020.69 1021.73 1022.73 1023.75 1024.79 1025.70 1026.16 1026.75 1027.17 1027.47 1027.80 1027.97 1027.78 1027.94 1028.45 1028.92 1029.31 1029.60 1029.80 1029.92
Wind_Speed
14 9 10 11 11 8 7 7 7 6 6 7 8 7 6 5 5 7 6 8 6 5
12 12 12 8 7 7 6 8 8 8 9 7 8 7 7 6 6 7 5 6 6 4
12 11 10 10 11 11 9 10 10 9 9 8 7 6 6 6 5 8 4 4 6 4
12 11 12 12 10 10 11 11 11 11 10 10 9 7 6 6 7 8 6 5 6 5
11 11 12 11 11 10 12 10 11 11 10 9 8 7 8 9 7 8 7 6 6 6
12 12 12 11 10 10 10 10 9 10 10 10 9 9 7 7 7 7 6 6 6 6
15 15 14 12 11 11 10 11 10 9 8 8 8 8 8 7 7 6 6 6 6 6
13 13 12 11 11 10 9 9 9 8 6 6 7 7 8 8 7 7 6 5 5 5
13 11 11 10 11 10 9 8 8 8 8 8 6 13 16 10 8 7 7 7 6 5
13 13 12 12 12 12 11 10 9 8 8 9 7 16 17 17 6 7 7 7 5 5
14 13 12 12 12 11 10 11 10 9 9 8 8 17 18 17 6 5 6 6 6 6
15 14 14 14 13 10 9 8 8 7 8 10 8 19 20 15 6 7 8 6 7 7
14 14 14 13 12 8 8 8 6 7 8 11 10 18 20 17 4 6 6 5 7 14
10 11 11 11 9 9 8 7 7 8 9 9 12 10 20 19 5 8 5 6 6 7
Wind_Direction
159 165 158 161 155 157 155 148 149 139 130 123 114 110 107 111 118 110 107 108 103 114
162 160 162 150 143 150 140 146 149 144 135 128 124 131 137 130 118 105 104 113 115 107
164 161 150 154 157 160 153 153 151 144 139 139 137 141 134 124 121 115 119 121 126 124
164 159 158 166 164 164 157 159 158 153 149 151 155 154 135 131 139 134 135 136 149 159
161 160 164 167 168 164 166 164 160 157 156 158 160 158 153 152 156 146 155 164 164 166
166 166 171 169 167 167 162 164 160 161 164 164 165 165 168 154 154 159 167 171 178 177
175 174 175 171 168 168 168 165 169 171 164 166 167 172 166 157 157 161 177 185 189 187
176 173 165 162 165 164 169 171 167 156 158 162 175 181 171 166 165 172 181 199 206 203
164 161 159 158 163 162 166 158 159 171 170 175 195 198 191 174 176 180 187 203 207 210
161 165 167 162 163 171 172 163 175 173 169 193 205 204 203 199 186 183 200 198 189 207
164 168 164 165 174 171 169 175 178 182 190 199 211 212 213 209 181 197 213 199 192 211
171 171 169 174 174 169 163 167 192 183 193 206 212 215 218 211 182 208 220 203 205 211
176 174 174 172 166 164 175 187 184 193 202 211 220 219 219 215 171 207 219 210 220 221
164 168 165 158 159 161 176 183 182 208 215 212 216 217 220 222 195 217 212 221 232 229